Needles, CA

2:18 AM PDT on May 29, 2017 (GMT -0700)
Needles

Weather History for KEED - March, 2012

Change the Weather History Date:

Wednesday, March 7, 2012

  Actual Average Record
Temperature  
Mean Temperature 54 °F 62 °F  
Max Temperature 61 °F 75 °F 93 °F (1972)
Min Temperature 46 °F 50 °F 34 °F (1931)
Degree Days  
Heating Degree Days 12    
Cooling Degree Days 0    
Growing Degree Days 4 (Base 50)    
Moisture  
Dew Point 11 °F    
Average Humidity 19    
Maximum Humidity 34    
Minimum Humidity 14    
Precipitation  
Precipitation 0.00 in 0.03 in 0.50 in (2010)
Month to date precipitation 0.16  
Year to date precipitation 1.66  
Sea Level Pressure  
Sea Level Pressure 29.94 in    
Wind  
Wind Speed 13 mph (North)    
Max Wind Speed 21 mph    
Max Gust Speed 31 mph    
Visibility 10 miles    
Events      
T = Trace of Precipitation, MM = Missing Value Source: NWS Daily Summary

Daily Weather History Graph

Daily Weather History Graph

Search for Another Location

Airport or City:

Trip Planner

Search our weather history database for the weather conditions in past years. The results will help you decide how hot, cold, wet, or windy it might be!

Date:

Astronomy

Mar. 07, 2012 Rise Set
Actual Time 5:59 AM PST 5:40 PM PST
Civil Twilight 5:33 AM PST 6:05 PM PST
Nautical Twilight 5:04 AM PST 6:34 PM PST
Astronomical Twilight 4:35 AM PST 7:03 PM PST
Moon 5:19 PM PST (3/7) 5:11 AM PST (3/7)
Length of Visible Light 12h 31m
Length of Day
11h 40m
Full, 100% of the Moon is Illuminated
Mar 7
Full
Mar 8
Full
Mar 14
Last Quarter
Mar 22
New
Mar 30
First Quarter

Hourly Weather History & Observations

Time (PST) Temp. Windchill Dew Point Humidity Pressure Visibility Wind Dir Wind Speed Gust Speed Precip Events Conditions
12:56 AM 51.1 °F - 19.0 °F 28% 29.68 in 10.0 mi WNW 10.4 mph - N/A   Mostly Cloudy
1:56 AM 52.0 °F - 24.1 °F 34% 29.70 in 10.0 mi NNW 12.7 mph - N/A   Overcast
2:56 AM 51.1 °F - 9.0 °F 18% 29.72 in 10.0 mi NNW 12.7 mph - N/A   Overcast
3:56 AM 50.0 °F - 7.0 °F 18% 29.74 in 10.0 mi NNW 20.7 mph 25.3 mph N/A   Overcast
4:56 AM 48.9 °F - 7.0 °F 18% 29.77 in 10.0 mi NW 12.7 mph - N/A   Overcast
5:56 AM 46.0 °F 43.1 °F 7.0 °F 20% 29.82 in 10.0 mi NNW 5.8 mph - N/A   Clear
6:56 AM 46.9 °F - 5.0 °F 18% 29.87 in 10.0 mi NNW 13.8 mph - N/A   Clear
7:56 AM 50.0 °F - 3.0 °F 15% 29.93 in 10.0 mi North 15.0 mph - N/A   Clear
8:56 AM 53.1 °F - 3.9 °F 14% 29.95 in 10.0 mi NNE 15.0 mph 23.0 mph N/A   Clear
9:56 AM 53.1 °F - 8.1 °F 16% 29.98 in 10.0 mi North 10.4 mph 17.3 mph N/A   Clear
10:56 AM 55.0 °F - 15.1 °F 21% 30.00 in 10.0 mi NE 11.5 mph 26.5 mph N/A   Clear
11:56 AM 57.0 °F - 15.1 °F 19% 29.99 in 10.0 mi North 15.0 mph 27.6 mph N/A   Clear
12:56 PM 59.0 °F - 12.9 °F 16% 29.99 in 10.0 mi NNE 16.1 mph 21.9 mph N/A   Clear
1:56 PM 60.1 °F - 12.9 °F 16% 29.99 in 10.0 mi ENE 16.1 mph 25.3 mph N/A   Clear
2:56 PM 61.0 °F - 12.9 °F 15% 29.99 in 10.0 mi NE 16.1 mph 31.1 mph N/A   Clear
3:56 PM 61.0 °F - 12.0 °F 15% 30.00 in 10.0 mi NE 18.4 mph 26.5 mph N/A   Clear
4:56 PM 60.1 °F - 10.9 °F 14% 30.02 in 10.0 mi NE 18.4 mph - N/A   Clear
5:56 PM 57.9 °F - 12.9 °F 17% 30.03 in 10.0 mi NNE 6.9 mph - N/A   Clear
6:56 PM 55.9 °F - 12.0 °F 18% 30.04 in 10.0 mi WNW 3.5 mph - N/A   Clear
7:56 PM 52.0 °F - 10.0 °F 19% 30.06 in 10.0 mi West 4.6 mph - N/A   Clear
9:56 PM 50.0 °F - 10.9 °F 21% 30.09 in 10.0 mi West 6.9 mph - N/A   Clear
10:56 PM 53.1 °F - 16.0 °F 23% 30.10 in 10.0 mi NNE 8.1 mph - N/A   Clear
11:56 PM 53.1 °F - 16.0 °F 23% 30.11 in 10.0 mi North 18.4 mph 23.0 mph N/A   Clear